• In Deutschland
  • Länderverzeichnis
  • Für 7 Tage
  • Wassertemperatur
  • Satellitenkarten
  • Wetterkarte
  • Widgets
  • user-avatar
    Anmelden

    Stündliche Wetter Grand Bassam

    Heute, 15 Dezember, Freitag

    Zeit Temperatur Niederschläge Wind Luftdruck Luftfeuchtigkeit
    00:00 +28°C° 0 mm 3 m/S 758 mmHg 89%
    01:00 +27°C° 0 mm 3 m/S 758 mmHg 90%
    02:00 +27°C° 0 mm 3 m/S 758 mmHg 91%
    03:00 +27°C° 0 mm 3 m/S 757 mmHg 93%
    04:00 +27°C° 0 mm 3 m/S 758 mmHg 93%
    05:00 +27°C° 0 mm 3 m/S 758 mmHg 94%
    06:00 +27°C° 0 mm 2 m/S 758 mmHg 94%
    07:00 +28°C° 0 mm 3 m/S 758 mmHg 87%
    08:00 +30°C° 0 mm 3 m/S 758 mmHg 80%
    09:00 +31°C° 0 mm 3 m/S 759 mmHg 72%
    10:00 +33°C° 0 mm 3 m/S 758 mmHg 66%
    11:00 +34°C° 0 mm 3 m/S 758 mmHg 60%
    12:00 +36°C° 0 mm 3 m/S 758 mmHg 54%
    13:00 +35°C° 0,1 mm 3 m/S 757 mmHg 56%
    14:00 +35°C° 0,1 mm 3 m/S 757 mmHg 58%
    15:00 +34°C° 0,1 mm 3 m/S 756 mmHg 60%
    16:00 +33°C° 0,1 mm 3 m/S 756 mmHg 65%
    17:00 +31°C° 0,1 mm 3 m/S 757 mmHg 70%
    18:00 +30°C° 0,1 mm 2 m/S 757 mmHg 74%
    19:00 +29°C° 0 mm 2 m/S 757 mmHg 77%
    20:00 +28°C° 0 mm 2 m/S 758 mmHg 80%
    21:00 +28°C° 0 mm 2 m/S 759 mmHg 83%
    22:00 +28°C° 0 mm 3 m/S 758 mmHg 84%
    23:00 +27°C° 0 mm 3 m/S 758 mmHg 86%

    Morgen, 16 Dezember, Samstag

    Zeit Temperatur Niederschläge Wind Luftdruck Luftfeuchtigkeit
    00:00 +27°C° 0 mm 3 m/S 758 mmHg 87%
    01:00 +27°C° 0 mm 3 m/S 758 mmHg 88%
    02:00 +27°C° 0 mm 3 m/S 757 mmHg 89%
    03:00 +27°C° 0 mm 3 m/S 757 mmHg 90%
    04:00 +27°C° 0 mm 3 m/S 757 mmHg 91%
    05:00 +26°C° 0 mm 3 m/S 757 mmHg 91%
    06:00 +26°C° 0 mm 3 m/S 757 mmHg 92%
    07:00 +28°C° 0 mm 3 m/S 758 mmHg 85%
    08:00 +29°C° 0 mm 3 m/S 758 mmHg 78%
    09:00 +31°C° 0 mm 3 m/S 759 mmHg 70%
    10:00 +31°C° 0 mm 3 m/S 759 mmHg 68%
    11:00 +33°C° 0 mm 3 m/S 758 mmHg 65%
    12:00 +33°C° 0 mm 3 m/S 758 mmHg 62%
    13:00 +34°C° 0 mm 3 m/S 758 mmHg 61%
    14:00 +34°C° 0 mm 4 m/S 757 mmHg 59%
    15:00 +34°C° 0 mm 4 m/S 756 mmHg 58%
    16:00 +33°C° 0 mm 3 m/S 756 mmHg 64%
    17:00 +31°C° 0 mm 3 m/S 757 mmHg 69%
    18:00 +30°C° 0 mm 3 m/S 757 mmHg 74%
    19:00 +29°C° 0 mm 3 m/S 757 mmHg 77%
    20:00 +28°C° 0 mm 4 m/S 758 mmHg 81%
    21:00 +28°C° 0 mm 4 m/S 759 mmHg 84%
    22:00 +28°C° 0 mm 4 m/S 758 mmHg 85%
    23:00 +27°C° 0 mm 4 m/S 758 mmHg 86%

    übermorgen, 17 Dezember, Sonntag

    Zeit Temperatur Niederschläge Wind Luftdruck Luftfeuchtigkeit
    00:00 +27°C° 0 mm 3 m/S 758 mmHg 88%
    01:00 +27°C° 0 mm 4 m/S 758 mmHg 89%
    02:00 +27°C° 0 mm 4 m/S 757 mmHg 89%
    03:00 +27°C° 0 mm 4 m/S 757 mmHg 90%
    04:00 +27°C° 0 mm 4 m/S 757 mmHg 90%
    05:00 +27°C° 0 mm 4 m/S 757 mmHg 89%
    06:00 +27°C° 0 mm 4 m/S 757 mmHg 89%
    07:00 +28°C° 0 mm 4 m/S 758 mmHg 86%
    08:00 +29°C° 0 mm 4 m/S 758 mmHg 82%
    09:00 +29°C° 0 mm 4 m/S 759 mmHg 79%
    10:00 +30°C° 0 mm 4 m/S 758 mmHg 74%
    11:00 +33°C° 0 mm 4 m/S 758 mmHg 69%
    12:00 +34°C° 0 mm 4 m/S 758 mmHg 64%
    13:00 +34°C° 0 mm 4 m/S 757 mmHg 64%
    14:00 +33°C° 0 mm 4 m/S 756 mmHg 65%
    15:00 +33°C° 0 mm 4 m/S 756 mmHg 65%
    16:00 +32°C° 0 mm 4 m/S 756 mmHg 69%
    17:00 +32°C° 0 mm 4 m/S 756 mmHg 73%
    18:00 +30°C° 0 mm 3 m/S 756 mmHg 76%
    19:00 +29°C° 0 mm 3 m/S 757 mmHg 80%
    20:00 +29°C° 0 mm 3 m/S 758 mmHg 83%
    21:00 +28°C° 0 mm 3 m/S 758 mmHg 87%
    22:00 +28°C° 0 mm 4 m/S 758 mmHg 87%
    23:00 +28°C° 0 mm 4 m/S 758 mmHg 88%

    18 Dezember, Montag

    Zeit Temperatur Niederschläge Wind Luftdruck Luftfeuchtigkeit
    00:00 +28°C° 0 mm 4 m/S 758 mmHg 89%
    01:00 +27°C° 0 mm 4 m/S 757 mmHg 90%
    02:00 +27°C° 0 mm 4 m/S 757 mmHg 90%
    03:00 +27°C° 0 mm 4 m/S 756 mmHg 91%
    04:00 +27°C° 0 mm 4 m/S 757 mmHg 92%
    05:00 +27°C° 0 mm 4 m/S 757 mmHg 92%
    06:00 +27°C° 0 mm 4 m/S 757 mmHg 92%
    07:00 +28°C° 0 mm 4 m/S 757 mmHg 86%
    08:00 +29°C° 0 mm 4 m/S 758 mmHg 80%
    09:00 +30°C° 0 mm 4 m/S 759 mmHg 74%
    10:00 +32°C° 0,1 mm 4 m/S 758 mmHg 73%
    11:00 +32°C° 0,1 mm 4 m/S 758 mmHg 72%
    12:00 +32°C° 0,1 mm 4 m/S 758 mmHg 70%
    13:00 +33°C° 0,1 mm 4 m/S 757 mmHg 67%
    14:00 +34°C° 0,1 mm 5 m/S 756 mmHg 63%
    15:00 +34°C° 0,1 mm 5 m/S 756 mmHg 60%
    16:00 +33°C° 0 mm 4 m/S 756 mmHg 64%
    17:00 +32°C° 0 mm 4 m/S 756 mmHg 69%
    18:00 +30°C° 0 mm 4 m/S 756 mmHg 74%
    19:00 +29°C° 0 mm 4 m/S 757 mmHg 77%
    20:00 +29°C° 0 mm 4 m/S 758 mmHg 80%
    21:00 +28°C° 0 mm 3 m/S 758 mmHg 84%
    22:00 +28°C° 0,3 mm 3 m/S 758 mmHg 86%
    23:00 +27°C° 0,3 mm 3 m/S 758 mmHg 87%

    19 Dezember, Dienstag

    Zeit Temperatur Niederschläge Wind Luftdruck Luftfeuchtigkeit
    00:00 +27°C° 0,3 mm 3 m/S 758 mmHg 89%
    01:00 +27°C° 0,1 mm 3 m/S 757 mmHg 89%
    02:00 +27°C° 0,1 mm 3 m/S 757 mmHg 90%
    03:00 +27°C° 0,1 mm 3 m/S 756 mmHg 91%
    04:00 +27°C° 0 mm 4 m/S 757 mmHg 91%
    05:00 +27°C° 0 mm 4 m/S 757 mmHg 91%
    06:00 +26°C° 0 mm 4 m/S 757 mmHg 92%
    07:00 +28°C° 0 mm 4 m/S 758 mmHg 85%
    08:00 +29°C° 0 mm 4 m/S 758 mmHg 79%
    09:00 +32°C° 0 mm 4 m/S 759 mmHg 72%
    10:00 +32°C° 0,1 mm 4 m/S 758 mmHg 70%
    11:00 +33°C° 0,1 mm 4 m/S 758 mmHg 67%
    12:00 +33°C° 0,1 mm 4 m/S 758 mmHg 64%
    13:00 +33°C° 0,7 mm 4 m/S 757 mmHg 65%
    14:00 +33°C° 0,7 mm 4 m/S 756 mmHg 66%
    15:00 +33°C° 0,7 mm 5 m/S 756 mmHg 67%
    16:00 +32°C° 0,1 mm 4 m/S 756 mmHg 71%
    17:00 +30°C° 0,1 mm 4 m/S 756 mmHg 75%
    18:00 +29°C° 0,1 mm 4 m/S 757 mmHg 79%
    19:00 +28°C° 0 mm 4 m/S 757 mmHg 82%
    20:00 +28°C° 0 mm 3 m/S 758 mmHg 85%
    21:00 +27°C° 0 mm 3 m/S 758 mmHg 87%
    22:00 +27°C° 0,3 mm 3 m/S 758 mmHg 89%
    23:00 +27°C° 0,3 mm 3 m/S 758 mmHg 90%

    20 Dezember, Mittwoch

    Zeit Temperatur Niederschläge Wind Luftdruck Luftfeuchtigkeit
    00:00 +27°C° 0,3 mm 3 m/S 758 mmHg 91%
    01:00 +26°C° 0,4 mm 3 m/S 757 mmHg 92%
    02:00 +26°C° 0,4 mm 3 m/S 757 mmHg 92%
    03:00 +26°C° 0,4 mm 3 m/S 756 mmHg 93%
    04:00 +26°C° 0 mm 3 m/S 756 mmHg 93%
    05:00 +26°C° 0 mm 3 m/S 757 mmHg 93%
    06:00 +26°C° 0 mm 3 m/S 757 mmHg 93%
    07:00 +27°C° 0 mm 3 m/S 757 mmHg 87%
    08:00 +29°C° 0 mm 3 m/S 758 mmHg 81%
    09:00 +30°C° 0 mm 4 m/S 758 mmHg 76%
    10:00 +32°C° 0 mm 4 m/S 758 mmHg 71%
    11:00 +32°C° 0 mm 4 m/S 758 mmHg 67%
    12:00 +33°C° 0 mm 4 m/S 758 mmHg 63%
    13:00 +34°C° 0 mm 4 m/S 757 mmHg 61%
    14:00 +34°C° 0 mm 4 m/S 756 mmHg 60%
    15:00 +34°C° 0 mm 4 m/S 756 mmHg 58%
    16:00 +33°C° 0 mm 4 m/S 756 mmHg 63%
    17:00 +32°C° 0 mm 4 m/S 756 mmHg 68%
    18:00 +30°C° 0 mm 4 m/S 757 mmHg 74%
    19:00 +29°C° 0 mm 3 m/S 757 mmHg 77%
    20:00 +28°C° 0 mm 3 m/S 757 mmHg 81%
    21:00 +28°C° 0 mm 3 m/S 758 mmHg 85%
    22:00 +28°C° 0 mm 3 m/S 758 mmHg 86%
    23:00 +27°C° 0 mm 3 m/S 758 mmHg 87%
    Mehr zeigen